Showing default

CUBEL, 47448

Orbit data source: Space-Track

CUBEL, 47448 is a payload satellite owned by DLR (DE) in SSO that was launched on Sun, 24 Jan 2021 UTC via an FALCON 9 launch vehicle from the Air Force Eastern Test Range (AFETR). Payload-class satellites include a variety of spacecraft equipped with specific instruments for various scientific and technological missions. These include communications satellites like Starlink; space stations such as the ISS; scientific satellites like the Hubble; Earth observation satellites from companies like Planet Labs, Umbra, and HawkEye 360; GPS; miniature CubeSats for education and research; and military/defense satellites.

Loading next visibility...
Identifier
47448, 2021-006AM
Orbit
SSO
Country
Flag of DEDE / GER
Related business
Manufacturer
DLR2/GOMSP
Mission
Operational Civil Technology
Bus & Motor
CUBESAT 3U, Unknown motor
Mass
4 kg wet, 4 kg dry
Launch date (UTC)
2021-01-24 (5 years ago)
Launch vehicle
FALCON 9
Launch site
Air Force Eastern Test Range (AFETR)
Object type
Payload
Rocket body
Debris
Shape & HBR
Box, Unknown HBR
Radar Cross Section
0.035 m², Small (<0.1 m²)

Expand to show TLE details & history
Last TLE update: 2 days ago

TLE from 2 days ago
0 CUBEL
1 47448U 21006AM  25306.40571112  .00010789  00000-0  30901-3 0  9994
2 47448  97.2709 354.4720 0005404 272.3540  87.7085 15.36085534264887
Epoch: 2025-11-02T09:44Z
TLE epoch observation values (Epoch: 2025-11-02T09:44:13.440Z)
Latitude
-0.00009°
Longitude
166.49411°
Altitude
460.668 km
Speed
7.636 km/s
True Right ascension
23h 37m 53s
True Declination
0° 00' 00"
Sunlit
Object was in full shadow at epoch
Visualization orbit readout
Latitude
Unknown
Longitude
Unknown
Altitude
Unknown
Speed
Unknown
Apparent Right ascension
Unknown
Apparent Declination
Unknown
Sunlit
N/A
Visualization observer readout
Local Sidereal Time
00:02:42
Azimuth
Unknown
Elevation
Unknown
Doppler factor
Unknown
Orbital elements
Apogee altitude
458.329 km
Perigee altitude
450.944 km
Semi-major axis
6,832.774 km
Eccentricity
0.00054
Inclination
97.2709°
RAAN
354.472°
Arg. of periapsis
272.354°
True anomaly
87.77038°
Mean anomaly
87.7085°
Eccentric anomaly
87.73944°
Mean motion
3.8428 °/min
Orbital period
93.68 mins
BSTAR
0.00030901
Loading maneuver chart data...
Computing Atmospheric mass density...

Documentation

Showing up to 5 results
|